Location: Sublett
(32.6449°N, 97.1333°W)
Time: 04:55:34
(UTC+00:00)

Daily predictions for brighter satellites

Satellite Brightness Start Highest point End
(mag) Time Altitude Azimuth Time Altitude Azimuth Time Altitude Azimuth
SJ-6B 2.9 02:01:23 10° S 02:04:58 68° W 02:08:34 10° NNW
Cosmos 2251 Rocket 3.9 01:59:57 10° SSW 02:05:11 73° WNW 02:10:31 10° NNE
Okean O Rocket 2.6 02:01:45 10° SE 02:05:34 30° ENE 02:09:24 10° N
Cosmos 407 Rocket 4.2 02:01:11 10° SSW 02:06:21 62° WNW 02:11:29 10° N
Cosmos 2195 Rocket 4.5 02:00:43 10° S 02:06:49 86° E 02:12:59 10° N
Centaur AC-119 4.1 02:03:40 10° SSW 02:07:19 32° SSE 02:16:37 10° E
Lacrosse 5 rocket 3.0 02:04:07 10° WNW 02:07:46 29° WSW 02:11:18 10° S
Meteor 1-18 Rocket 4.5 02:02:23 10° S 02:08:16 82° W 02:14:06 10° N
USA 186 2.0 02:05:16 10° SSE 02:08:31 56° ENE 02:11:47 10° N
Cosmos 1666 Rocket 3.5 02:07:30 10° N 02:11:50 68° E 02:16:11 10° SSE
Cosmos 1842 3.8 02:11:38 10° SSE 02:14:58 34° E 02:18:18 10° NNE
CZ-4B R/B 3.2 02:11:14 10° SSE 02:16:28 70° ENE 02:21:46 10° N
Cosmos 1092 Rocket 4.1 02:13:16 10° S 02:19:36 90° ESE 02:25:59 10° N
Tiangong -0.3 02:18:48 10° NW 02:21:29 25° NNE 02:24:11 10° ENE
CZ-4 R/B 2.1 02:18:41 10° S 02:22:31 53° W 02:26:26 10° NNW
Cosmos 1954 Rocket 4.0 02:18:23 10° S 02:23:38 69° ESE 02:28:53 10° NNE
SPOT 5 4.4 02:22:14 10° ESE 02:24:58 17° ENE 02:27:44 10° NNE
Cosmos 1066 Rocket 4.4 02:21:21 10° S 02:27:12 82° W 02:33:00 10° N
Cosmos 676 Rocket 4.0 02:30:08 10° S 02:35:24 72° ESE 02:40:42 10° NNE
Resurs 01 Rocket 1.7 02:31:58 10° S 02:36:21 84° WSW 02:40:46 10° NNW
Cosmos 1707 2.7 02:33:15 10° S 02:36:45 52° E 02:40:16 10° NNE
ASTRO E2 2.8 02:36:42 10° SW 02:39:58 39° SSE 02:42:09 18° ESE
Cosmos 2082 Rocket 4.0 02:37:15 10° SW 02:42:26 35° WNW 02:47:39 10° N
PSLV R/B 3.4 02:40:20 13° SSE 02:43:27 81° ENE 02:46:58 10° N
SL-16 R/B 3.7 02:41:49 10° N 02:46:06 21° ENE 02:49:14 14° E
SJ 16-02 3.5 02:50:25 10° E 02:50:25 10° E 02:50:27 10° E
Cosmos 2369 3.7 02:45:31 10° NNW 02:51:16 85° ENE 02:55:49 17° SSE
ERS-1 Rocket 4.3 02:49:41 17° ESE 02:52:04 23° ENE 02:56:00 10° NNE
Cosmos 1674 3.6 02:49:22 10° SSW 02:52:40 44° W 02:56:00 10° N
SL-27 R/B 4.5 02:59:50 10° ENE 02:59:50 10° ENE 02:59:51 10° ENE
Atlas Centaur 2 3.0 02:50:09 10° W 02:58:04 76° S 03:05:10 16° E
Terra 3.3 02:56:42 18° E 02:58:25 21° ENE 03:01:56 10° NNE
CZ-4C R/B 3.3 02:54:23 10° NNE 02:58:32 77° ESE 03:02:32 10° S
MOS 1-B Rocket 4.3 02:52:18 10° S 02:58:42 68° WSW 03:04:26 10° NNW
Cosmos 1763 Rocket 3.4 02:56:09 10° NNW 03:01:23 89° ENE 03:04:58 20° SSE
CSL-04 Rocket 4.5 03:02:09 10° S 03:07:12 47° W 03:12:20 10° NNW
USA 234 3.4 03:02:40 10° NE 03:09:11 75° NW 03:15:41 10° SW
FALCON 9 R/B 4.2 03:08:41 10° WSW 03:12:39 22° SSW 03:16:38 17° SSE
Cosmos 1400 Rocket 2.6 03:15:07 33° S 03:16:44 68° E 03:20:34 10° NNE
Atlas 2A Centaur Rocket 3.2 03:15:15 10° SW 03:15:54 14° SW 03:15:54 14° SW
IRS-1A Rocket 4.4 03:14:34 28° SE 03:17:18 56° ENE 03:22:40 10° N
ARGOS Delta rocket 3.6 03:15:40 32° SSE 03:17:42 70° ENE 03:22:05 10° N
Cosmos 1417 Rocket 4.5 03:14:12 10° N 03:20:18 62° E 03:23:26 29° SSE
Cosmos 1441 Rocket 2.9 03:16:49 10° N 03:20:26 74° E 03:21:16 50° SSE
ATLAS CENTAUR R/B 1.3 03:18:52 10° SW 03:22:16 61° WNW 03:25:45 10° NNE
Cosmos 1356 Rocket 3.9 03:22:33 38° ESE 03:22:51 39° E 03:26:46 10° NNE
Okean-O 2.9 03:20:32 24° S 03:23:06 63° W 03:27:27 10° NNW
Cosmos 1908 2.9 03:21:27 10° N 03:25:04 86° W 03:25:58 49° S
Cosmos 1980 Rocket 3.6 03:21:08 10° NW 03:26:07 32° WSW 03:30:42 12° SSW
Cosmos 2322 Rocket 3.3 03:23:30 10° N 03:28:27 30° ENE 03:30:11 25° E
SL-08 ROCKET BODY 4.3 03:25:30 20° S 03:29:59 82° E 03:36:05 10° N
Ariane Rocket 3.7 03:29:26 33° ESE 03:30:43 39° ENE 03:35:25 10° N
Meteor 2-10 Rocket 4.1 03:25:49 10° N 03:30:58 41° ENE 03:32:12 36° ESE
Meteor 1-22 Rocket 4.4 03:26:02 10° N 03:31:43 61° E 03:33:59 37° SE
USA 245 3.4 03:32:06 48° ENE 03:32:06 48° ENE 03:35:53 10° N
Cosmos 468 Rocket 4.1 03:29:05 10° NNW 03:34:15 68° WSW 03:36:33 32° S
Cosmos 2228 Rocket 3.1 03:39:24 54° SSE 03:40:15 67° E 03:44:47 10° NNE
Cosmos 2278 3.6 03:35:56 10° NNW 03:41:40 88° ENE 03:43:39 43° SSE
Okean O Rocket 4.0 03:38:46 10° SW 03:41:49 18° W 03:44:52 10° NW
Cosmos 1470 4.3 03:39:14 10° NNW 03:42:27 29° W 03:44:06 20° SW
Cosmos 1241 Rocket 4.3 03:40:31 22° S 03:44:36 67° ESE 03:50:45 10° NNE
BlueWalker 3 4.4 03:48:25 12° NE 03:48:25 12° NE 03:48:46 10° NE
Cosmos 1850 Rocket 4.3 03:40:35 13° SSW 03:45:17 68° WNW 03:50:29 10° N
Cosmos 1869 Rocket 3.7 03:41:07 10° N 03:45:33 73° W 03:46:42 48° SSW
Meteor 1-21 4.2 03:45:53 43° SSE 03:47:42 66° E 03:53:28 10° NNE
MOS 1 Rocket 3.7 03:47:05 48° SE 03:48:21 63° ENE 03:53:37 10° N
Cosmos 540 Rocket 4.4 03:43:49 10° NNW 03:48:38 42° W 03:50:55 26° SSW
ATLAS 2AS CENTAUR R/B 3.7 03:45:26 10° N 03:51:22 32° NE 03:53:49 25° E
Cosmos 2219 Rocket 3.9 03:48:38 10° NNE 03:52:31 18° ENE 03:53:40 17° ENE
Cosmos 968 Rocket 3.5 03:55:15 34° SSW 03:57:32 77° WNW 04:02:42 10° NNE
S3M 4.1 03:51:32 10° N 03:57:52 77° W 04:00:27 38° S
Tiangong -0.4 03:55:19 10° WNW 03:57:06 30° WNW 03:57:06 30° WNW
SeaSat 1 2.3 03:57:51 62° ESE 03:58:33 73° ENE 04:03:27 10° NNW
Cosmos 2237 4.2 03:53:07 10° NNW 03:58:50 75° WSW 04:00:22 49° S
SL-14 R/B 3.6 03:59:59 55° W 04:00:08 55° W 04:03:52 10° N
Spot 1 4.2 03:56:22 10° NNE 04:01:01 69° ESE 04:01:09 69° ESE
SPOT 3 Rocket 3.4 04:00:42 63° SE 04:01:25 74° ENE 04:06:34 10° N
SPOT 5 4.0 04:01:22 26° SW 04:02:42 31° W 04:06:34 10° NW
Cosmos 1655 Rocket 4.3 04:02:48 27° SSW 04:06:22 68° W 04:12:45 10° N
Landsat 5 3.7 04:05:35 10° NNE 04:08:59 60° NNE 04:08:59 60° NNE
Okean 3 3.7 04:10:42 61° NNE 04:10:42 61° NNE 04:14:10 10° N
Cosmos 1862 Rocket 3.6 04:10:50 73° W 04:10:53 73° W 04:15:17 10° N
Cosmos 1346 Rocket 3.5 04:08:17 10° N 04:11:07 46° N 04:11:07 46° N
Cosmos 2360 Rocket 2.2 04:12:30 10° NNW 04:18:07 62° ENE 04:18:30 61° E
Cosmos 1244 Rocket 4.4 04:21:10 65° SE 04:21:55 72° E 04:28:10 10° N
Nadezhda 2 Rocket 4.4 04:23:37 64° SE 04:24:25 72° E 04:30:49 10° N
COSMOS 2455 4.0 04:27:48 28° ENE 04:27:48 28° ENE 04:31:10 10° NE
RESURS DK-1 3.2 04:21:58 10° NNW 04:25:03 46° WNW 04:25:03 46° WNW
SJ 16-02 2.1 04:27:07 45° W 04:27:18 45° WNW 04:31:27 10° N
SL-16 R/B 2.9 04:25:00 10° NW 04:30:19 44° WSW 04:31:06 41° SW
ERS-1 Rocket 4.2 04:29:37 29° WSW 04:30:35 31° W 04:35:02 10° NW
Cosmos 2333 Rocket 2.1 04:29:19 10° NNW 04:35:07 81° ENE 04:35:10 80° E
Terra 3.1 04:35:24 30° WSW 04:35:45 30° W 04:39:54 10° NW
CZ-3 Stage 3 4.3 03:46:37 10° W 04:37:54 82° S 04:43:32 35° ESE
Atlas Centaur 2 3.1 04:39:23 10° W 04:47:22 54° SSW 04:47:22 54° SSW
SL-08 R/B 4.3 04:48:33 84° SW 04:48:44 86° W 04:54:50 10° N
ARIANE 5 R/B 4.3 04:53:07 26° NNE 04:53:07 26° NNE 04:55:27 10° N
Okean 1-7 4.4 04:56:18 37° NW 04:56:18 37° NW 04:59:24 10° N
CZ-4C R/B 3.7 04:58:36 21° NE 04:58:36 21° NE 05:00:20 10° NE
Meteor 1-16 Rocket 4.4 04:51:52 10° NNW 04:57:40 68° W 04:57:40 68° W
Cosmos 2333 4.4 04:57:52 10° NNW 05:03:03 68° WNW 05:03:03 68° WNW
Cosmos 2297 Rocket 3.5 05:14:18 30° NE 05:14:18 30° NE 05:17:22 10° NNE
Cosmos 2322 Rocket 3.5 05:07:27 10° NW 05:11:59 30° W 05:11:59 30° W
Cosmos 1745 Rocket 4.3 05:33:30 62° WNW 05:33:30 62° WNW 05:39:30 10° N
Cosmos 2219 Rocket 3.1 05:31:13 10° NNW 05:35:22 43° WNW 05:35:22 43° WNW
COSMOS 2428 3.3 05:34:24 10° NNW 05:38:48 52° N 05:38:48 52° N
USA 281 3.2 05:41:51 77° NNW 05:41:51 77° NNW 05:47:54 10° NNW
ATLAS 2AS CENTAUR R/B 3.5 05:36:05 10° NW 05:41:14 39° W 05:41:14 39° W
Nadezhda 1 Rocket 4.4 05:43:39 10° NNW 05:48:56 54° WNW 05:48:56 54° WNW
SL-12 R/B(2) 4.2 06:07:20 66° E 06:07:20 66° E 06:15:34 10° NE
COSMOS 2455 4.2 06:10:52 29° WNW 06:11:37 30° WNW 06:16:53 10° N
SL-16 R/B 4.2 06:27:10 10° NNE 06:31:14 20° ENE 06:32:00 19° ENE
CENTAUR R/B 3.0 06:33:07 50° NNE 06:33:07 50° NNE 06:37:53 10° NNE
Cosmos 2227 Rocket 3.1 06:37:22 45° NNW 06:37:22 45° NNW 06:41:29 10° NNE
Cosmos 2237 Rocket 3.1 06:32:18 10° NNW 06:36:08 45° NNW 06:36:08 45° NNW
CZ-4C R/B 4.4 06:43:37 13° NW 06:44:37 13° NW 06:47:04 10° NNW
Cosmos 2184 Rocket 4.4 06:49:15 60° NNW 06:49:15 60° NNW 06:54:31 10° N
Cosmos 2297 Rocket 4.1 06:56:04 20° WNW 06:56:13 20° WNW 07:00:19 10° NNW
Cosmos 2219 4.0 07:01:34 48° N 07:01:34 48° N 07:05:37 10° NNE
Cosmos 2154 Rocket 4.4 07:06:21 56° NW 07:06:21 56° NW 07:11:29 10° N
H-2A R/B 4.4 07:01:39 10° N 07:03:04 18° NNW 07:03:04 18° NNW
NOSS 3-2 (A) 4.1 07:21:44 41° NNW 07:21:44 41° NNW 07:26:09 10° NNE
SL-8 Rocket 4.4 07:21:49 53° ENE 07:21:49 53° ENE 07:27:14 10° NNE
Resurs 1-4 Rocket 4.1 07:19:02 10° NE 07:22:10 19° E 07:22:10 19° E
NOSS 3-2 (C) 3.9 07:28:54 46° NE 07:28:54 46° NE 07:32:56 10° NNE
Cosmos 2263 Rocket 2.9 07:28:45 49° NNW 07:28:45 49° NNW 07:33:03 10° NNE
Cosmos 1844 Rocket 3.9 07:47:26 32° E 07:47:26 32° E 07:51:50 10° NE
Cosmos 2341 Rocket 4.1 07:56:13 65° NW 07:56:13 65° NW 08:01:57 10° N
COBE Rocket 4.4 07:54:37 10° N 07:58:51 61° N 07:58:51 61° N
Cosmos 864 Rocket 4.4 08:02:24 76° WNW 08:02:24 76° WNW 08:08:36 10° N
IDEFIX/ARIANE 42P 2.7 08:03:58 10° NNE 08:08:40 71° NE 08:08:40 71° NE
SL-16 R/B 3.1 08:10:07 10° NNW 08:13:49 36° WNW 08:13:49 36° WNW
MOZ.5/SAFIR/RUBIN 5/SL-8 4.4 08:17:56 50° NNW 08:17:56 50° NNW 08:21:21 10° NNW
CZ-2C R/B 3.4 08:13:50 10° NNE 08:19:01 55° E 08:19:01 55° E
CZ-2C R/B 3.3 08:17:59 42° ESE 08:19:07 50° ENE 08:24:15 10° N
Cosmos 1821 Rocket 3.7 08:25:03 76° S 08:25:35 88° W 08:31:44 10° N
CZ-2D R/B 2.0 08:21:34 10° NNE 08:26:53 82° ESE 08:26:55 82° ESE
MSX 3.6 08:22:07 10° N 08:27:51 81° WNW 08:28:10 77° WSW
Cosmos 1943 3.6 08:23:44 10° NNW 08:29:17 60° ENE 08:31:17 38° SE
Cosmos 1867 3.6 08:30:15 67° WNW 08:30:15 67° WNW 08:35:43 10° NNE
Cosmos 2218 Rocket 4.4 08:30:27 44° W 08:30:30 44° W 08:36:24 10° N
Cosmos 2228 3.8 08:26:59 10° N 08:30:03 46° NNW 08:30:03 46° NNW
USA 238 DEB 3.5 08:32:42 59° W 08:33:30 65° WNW 08:39:57 10° NNE
USA 238 3.5 08:32:45 59° W 08:33:33 65° WNW 08:40:00 10° NNE
FENGYUN 3A 3.9 08:28:16 10° NNE 08:33:34 59° E 08:34:20 54° SE
AQUA 4.2 08:35:57 10° NNE 08:40:34 53° E 08:40:58 51° ESE
ADEOS II 2.0 08:41:24 10° NNE 08:46:40 83° ESE 08:47:23 67° S
NPP 4.1 08:41:52 10° N 08:46:58 44° WNW 08:47:11 44° W
ALOS 3.1 08:42:38 10° NNE 08:47:00 42° E 08:47:51 38° SE
ATLAS 5 CENTAUR R/B 3.1 08:56:45 18° ESE 08:56:45 18° ESE 08:58:41 10° ENE
Cosmos 1934 Rocket 4.1 08:59:41 35° S 09:02:29 75° E 09:08:50 10° N
Resurs 1-4 Rocket 2.7 08:57:44 10° N 09:02:38 41° WNW 09:03:13 39° W
Cosmos 1844 3.9 09:01:41 49° WSW 09:02:49 58° WNW 09:08:32 10° NNE
SL-16 R/B 3.0 08:59:19 11° SSE 09:05:13 62° ENE 09:11:21 10° N
Cosmos 921 Rocket 3.2 09:01:31 10° N 09:05:40 63° ENE 09:06:56 41° SE
NOSS 2-2 (C) 4.1 09:07:47 35° ESE 09:07:47 35° ESE 09:10:36 10° NE
Cosmos 2123 Rocket 4.4 09:03:00 10° N 09:09:06 61° E 09:14:25 14° SSE
Cosmos 1606 Rocket 3.4 09:06:06 10° N 09:10:33 88° W 09:11:20 60° S
Meteor 1-28 Rocket 3.3 09:10:16 61° ESE 09:10:34 65° ENE 09:14:04 10° N
Cosmos 2058 3.4 09:10:10 41° SE 09:11:08 52° E 09:15:06 10° NNE
USA 267 3.4 09:16:55 10° NE 09:23:23 65° NW 09:26:45 30° WSW
NOSS 2-3 (E) 4.2 09:22:56 31° SSE 09:23:47 36° ESE 09:27:09 10° NE
Cosmos 1726 Rocket 3.4 09:21:10 10° N 09:25:35 81° W 09:27:08 40° S
Cosmos 1238 Rocket 4.1 09:25:31 10° NNE 09:28:15 27° E 09:30:15 14° SE
NOSS 2-3 (C) 3.9 09:28:26 34° SSE 09:29:23 42° ESE 09:32:51 10° NE
Cosmos 1844 Rocket 3.9 09:29:05 24° W 09:30:44 27° WNW 09:35:27 10° N
METEOR-M 4.5 09:27:23 10° NNE 09:32:40 62° ESE 09:36:24 19° S
Delta 2 Rocket 3.2 09:33:16 26° WNW 09:35:27 82° NNE 09:39:46 10° ESE
SAR-Lupe-1 4.1 09:35:22 10° N 09:38:53 58° WNW 09:39:33 47° WSW
SEDSat Delta rocket 2.6 09:39:27 37° W 09:40:55 76° S 09:44:57 10° E
Alouette 2 Rocket 4.3 09:41:56 31° SW 09:43:32 41° W 09:47:20 10° N
ASTEX 1 4.0 09:43:47 31° SW 09:45:07 37° W 09:49:37 10° NNW
BREEZE-M DEB (TANK) 3.0 09:45:31 10° WNW 09:48:26 51° SW 09:57:28 10° SSE
Lacrosse 5 3.7 09:50:55 10° S 09:54:52 23° ESE 09:58:50 10° ENE
CZ-2C R/B 2.5 09:50:42 10° NNE 09:55:14 67° ESE 09:59:19 13° S
Cosmos 1544 2.8 09:55:24 37° WNW 09:55:24 37° WNW 09:57:47 10° N
Cosmos 2278 Rocket 3.7 09:50:49 10° SSE 09:55:44 31° ESE 10:00:41 10° NE
Envisat 3.0 09:52:07 10° N 09:57:10 71° WNW 10:00:48 19° SSW
Cosmos 1271 Rocket 3.8 09:55:31 10° SSE 09:58:51 38° E 10:02:12 10° NNE
CZ-2C R/B 4.2 09:59:28 15° W 09:59:36 15° W 10:02:40 10° WNW
Cosmos 1048 Rocket 4.3 09:55:09 10° NNW 10:00:10 47° WSW 10:05:13 10° S
UNK 3.8 09:58:30 13° S 10:02:29 55° W 10:07:00 10° NNW
Cosmos 1862 4.4 10:00:10 10° SSE 10:03:44 40° E 10:07:19 10° NNE
Mugunghwa Rocket 4.2 09:59:07 18° WSW 10:03:53 50° S 10:09:58 10° ESE
Cosmos 1603 4.5 09:59:30 10° NW 10:04:26 30° WSW 10:08:01 16° SSW
Cosmos 1758 Rocket 3.7 10:00:54 11° S 10:05:07 76° E 10:09:32 10° N
CZ-2D R/B 4.3 10:05:44 10° WNW 10:06:05 10° WNW 10:06:26 10° WNW
Cosmos 2058 Rocket 3.2 10:02:21 10° NNW 10:06:39 52° W 10:10:19 13° SSW
Cosmos 1153 Rocket 4.5 10:04:57 10° S 10:11:07 90° WNW 10:17:15 10° N
YAOGAN 6 2.1 10:11:07 10° N 10:14:18 75° WNW 10:16:44 16° SSW
Cosmos 1812 3.9 10:15:49 10° NW 10:18:35 21° W 10:19:50 18° WSW
Cosmos 1607 4.0 10:13:10 10° NW 10:19:20 54° WSW 10:25:20 10° S
USA 276 3.1 10:17:32 16° SSW 10:19:29 34° SE 10:22:09 10° ENE
NOSS 2-2 (E) 3.9 10:21:14 17° WSW 10:23:28 33° WNW 10:26:23 10° N
ALOS 4.1 10:21:11 10° NNW 10:23:47 15° WNW 10:26:09 11° W
Iridium 4 Rocket 4.1 10:20:19 10° NNW 10:24:28 33° W 10:28:49 11° SSW
Cosmos 1626 Rocket 4.3 10:22:56 14° SW 10:26:16 36° W 10:30:22 10° NNW
Cosmos 1515 3.5 10:23:59 10° N 10:27:28 78° E 10:30:56 10° S
Cosmos 1378 3.8 10:24:38 10° N 10:27:49 48° E 10:30:58 10° SSE
PAYLOAD A 4.2 10:23:57 10° N 10:29:10 63° WNW 10:34:29 10° SSW
Aurora 2 Rocket 4.3 10:27:02 13° SW 10:31:11 33° SSE 10:37:30 10° ESE
Cosmos 1782 2.8 10:34:29 10° NNW 10:38:14 54° W 10:41:58 10° S
DMSP B5D2-2 4.1 10:34:01 10° S 10:39:15 73° WSW 10:44:32 10° NNW
ATLAS 5 CENTAUR R/B 2.9 10:37:48 10° W 10:39:58 16° NW 10:42:12 10° N
Cosmos 2346 Rocket 4.4 10:33:58 10° N 10:40:01 80° W 10:46:03 10° S
Cosmos 1833 Rocket 3.2 10:43:25 10° NNW 10:49:02 68° ENE 10:54:38 10° SSE
SL-16 R/B 4.0 10:45:19 10° SW 10:49:05 17° W 10:52:53 10° NW
Cosmos 1666 2.4 10:47:18 10° SSW 10:50:42 64° W 10:54:06 10° N
Meteor 1-26 Rocket 4.3 10:46:57 10° N 10:52:21 83° E 10:57:44 10° S
Thor Agena Rocket 4.1 10:47:38 10° N 10:52:39 45° WNW 10:57:35 10° SW
